Weather History for KANJ - March, 2014

Change the Weather History Date:

Friday, March 7, 2014

  Actual Average Record
Temperature  
Mean Temperature 20 °F 23 °F  
Max Temperature 27 °F 31 °F 60 °F (2000)
Min Temperature 12 °F 14 °F -20 °F (1913)
Degree Days  
Heating Degree Days 45 42  
Month to date heating degree days 413 302  
Since 1 July heating degree days 7193 6428  
Cooling Degree Days 0 0  
Month to date cooling degree days 0 0  
Year to date cooling degree days 0 0  
Moisture  
Dew Point 18 °F    
Average Humidity 80    
Maximum Humidity 92    
Minimum Humidity 67    
Precipitation  
Precipitation 0.23 in 0.06 in 0.78 in (1926)
Month to date precipitation 0.25 0.39  
Year to date precipitation 3.61 3.92  
Snow  
Snow 2.20 in 0.50 in 8.60 in (1926)
Month to date snowfall 2.7 3.7  
Since 1 July snowfall 108.8 103.9  
Snow Depth 25.00 in    
Sea Level Pressure  
Sea Level Pressure 29.90 in    
Wind  
Wind Speed 5 mph (SSE)    
Max Wind Speed 10 mph    
Max Gust Speed 13 mph    
Visibility 5 miles    
Events Fog , Snow    
T = Trace of Precipitation, MM = Missing Value Source: NWS Daily Summary

Daily Weather History Graph

Daily Weather History Graph

Search for Another Location

Airport or City:

Trip Planner

Search our weather history database for the weather conditions in past years. The results will help you decide how hot, cold, wet, or windy it might be!

Date:

Astronomy

Mar. 07, 2014 Rise Set
Actual Time 7:05 AM EST 6:32 PM EST
Civil Twilight 6:35 AM EST 7:02 PM EST
Nautical Twilight 6:00 AM EST 7:37 PM EST
Astronomical Twilight 5:25 AM EST 8:12 PM EST
Moon 10:36 AM EST (3/7) 12:57 AM EST (3/7)
Length of Visible Light 12h 26m
Length of Day
11h 26m
Waxing Crescent, 42% of the Moon is Illuminated
Mar 7
Waxing Crescent
Mar 8
First Quarter
Mar 16
Full
Mar 23
Last Quarter
Mar 30
New

Hourly Weather History & Observations

Time (EST) Temp. Windchill Dew Point Humidity Pressure Visibility Wind Dir Wind Speed Gust Speed Precip Events Conditions
12:55 AM 12.0 °F 4.1 °F 6.1 °F 77% 30.09 in 10.0 mi East 4.6 mph - N/A   Clear
1:55 AM 12.9 °F 3.8 °F 6.1 °F 74% 30.08 in 10.0 mi ESE 5.8 mph - N/A   Overcast
2:55 AM 14.0 °F 2.9 °F 6.1 °F 71% 30.04 in 10.0 mi SE 8.1 mph - N/A   Scattered Clouds
3:55 AM 12.9 °F 1.6 °F 6.1 °F 74% 30.01 in 10.0 mi SE 8.1 mph - N/A   Clear
4:55 AM 12.0 °F 2.7 °F 6.1 °F 77% 30.01 in 10.0 mi East 5.8 mph - N/A   Overcast
5:55 AM 12.0 °F 1.5 °F 5.0 °F 73% 29.97 in 10.0 mi East 6.9 mph - N/A   Partly Cloudy
6:55 AM 12.9 °F 5.2 °F 6.1 °F 74% 29.96 in 10.0 mi ESE 4.6 mph - N/A   Scattered Clouds
7:55 AM 14.0 °F 5.1 °F 7.0 °F 74% 29.95 in 10.0 mi East 5.8 mph - N/A   Overcast
8:31 AM 16.0 °F 7.4 °F 8.1 °F 71% 29.90 in 10.0 mi ESE 5.8 mph - N/A   Overcast
8:55 AM 16.0 °F 8.8 °F 8.1 °F 71% 29.94 in 10.0 mi East 4.6 mph - N/A   Overcast
9:55 AM 19.0 °F 11.1 °F 10.0 °F 68% 29.91 in 10.0 mi ESE 5.8 mph - N/A   Overcast
10:55 AM 21.0 °F 14.6 °F 12.9 °F 71% 29.89 in 10.0 mi SE 4.6 mph - N/A   Overcast
11:55 AM 24.1 °F 17.0 °F 16.0 °F 71% 29.88 in 10.0 mi SE 5.8 mph - N/A   Overcast
12:29 PM 25.0 °F 17.1 °F 18.0 °F 75% 29.84 in 1.8 mi South 6.9 mph - 0.00 in Snow Light Snow
12:41 PM 25.0 °F 15.5 °F 19.9 °F 81% 29.84 in 0.8 mi SSW 9.2 mph - 0.00 in Snow Light Snow
12:52 PM 24.8 °F 16.9 °F 19.4 °F 80% 29.84 in 1.2 mi SSW 6.9 mph - 0.01 in Snow Light Snow
12:55 PM 25.0 °F 18.1 °F 19.9 °F 81% 29.88 in 1.5 mi South 5.8 mph - 0.01 in Snow Light Snow
1:28 PM 25.0 °F 18.1 °F 21.0 °F 85% 29.83 in 0.8 mi South 5.8 mph - 0.02 in Snow Light Snow
1:42 PM 25.0 °F 19.3 °F 21.0 °F 85% 29.82 in 0.5 mi South 4.6 mph - 0.03 in Fog , Snow Snow
1:50 PM 24.8 °F 19.1 °F 21.2 °F 86% 29.81 in 0.5 mi SSE 4.6 mph - 0.04 in Fog , Snow Snow
1:55 PM 25.0 °F 18.1 °F 21.9 °F 88% 29.85 in 0.5 mi South 5.8 mph - 0.04 in Fog , Snow Snow
2:19 PM 25.0 °F 19.3 °F 21.9 °F 88% 29.82 in 0.5 mi South 4.6 mph - 0.04 in Fog , Snow Snow
2:55 PM 25.0 °F 18.1 °F 21.9 °F 88% 29.85 in 0.2 mi SSW 5.8 mph - 0.08 in Fog , Snow Snow
3:11 PM 26.1 °F 20.5 °F 23.0 °F 88% 29.81 in 0.5 mi South 4.6 mph - 0.02 in Fog , Snow Snow
3:55 PM 26.1 °F - 24.1 °F 92% 29.83 in 0.8 mi Calm Calm - 0.05 in Snow Light Snow
4:36 PM 26.1 °F - 23.0 °F 88% 29.82 in 1.0 mi Calm Calm - 0.02 in Snow Light Snow
4:55 PM 27.0 °F - 24.1 °F 89% 29.85 in 0.8 mi Calm Calm - 0.03 in Snow Light Snow
5:06 PM 26.1 °F - 23.0 °F 88% 29.82 in 1.0 mi Calm Calm - 0.00 in Snow Light Snow
5:36 PM 27.0 °F - 23.0 °F 85% 29.82 in 0.8 mi Calm Calm - 0.01 in Snow Light Snow
5:55 PM 27.0 °F - 23.0 °F 85% 29.86 in 0.5 mi Calm Calm - 0.02 in Fog , Snow Light Snow
6:14 PM 26.1 °F 21.9 °F 23.0 °F 88% 29.83 in 1.0 mi North 3.5 mph - 0.00 in Snow Light Snow
6:24 PM 26.1 °F - 23.0 °F 88% 29.84 in 2.0 mi Calm Calm - 0.00 in Snow Light Snow
6:37 PM 26.1 °F - 23.0 °F 88% 29.85 in 1.5 mi Calm Calm - 0.00 in Snow Light Snow
6:48 PM 26.1 °F - 23.0 °F 88% 29.85 in 2.5 mi Calm Calm - 0.00 in Snow Light Snow
6:55 PM 26.1 °F - 23.0 °F 88% 29.89 in 3.0 mi Calm Calm - 0.00 in   Overcast
7:18 PM 25.0 °F 19.3 °F 23.0 °F 92% 29.87 in 2.5 mi WNW 4.6 mph - 0.00 in Snow Light Snow
7:34 PM 25.0 °F 19.3 °F 21.9 °F 88% 29.87 in 3.0 mi WNW 4.6 mph - 0.00 in   Overcast
7:55 PM 26.1 °F 19.4 °F 21.9 °F 84% 29.92 in 4.0 mi WNW 5.8 mph - 0.00 in   Overcast
8:37 PM 25.0 °F 18.1 °F 21.0 °F 85% 29.89 in 6.0 mi NW 5.8 mph - N/A   Overcast
8:55 PM 25.0 °F 16.3 °F 21.0 °F 85% 29.94 in 6.0 mi NW 8.1 mph - N/A   Overcast
9:08 PM 25.0 °F 16.3 °F 21.0 °F 85% 29.91 in 6.0 mi NW 8.1 mph - N/A   Overcast
9:18 PM 25.0 °F 17.1 °F 21.0 °F 85% 29.91 in 6.0 mi NW 6.9 mph - N/A   Overcast
9:55 PM 24.1 °F 16.0 °F 19.9 °F 84% 29.96 in 5.0 mi NW 6.9 mph - N/A   Mostly Cloudy
10:30 PM 23.0 °F 14.7 °F 19.9 °F 88% 29.94 in 6.0 mi NW 6.9 mph - N/A   Overcast
10:55 PM 24.1 °F 18.2 °F 19.9 °F 84% 29.97 in 6.0 mi NNW 4.6 mph - N/A   Overcast
11:14 PM 24.1 °F 18.2 °F 19.0 °F 81% 29.95 in 6.0 mi NW 4.6 mph - N/A   Haze
11:55 PM 23.0 °F 17.0 °F 18.0 °F 81% 30.00 in 8.0 mi NW 4.6 mph - N/A   Overcast